Notices

What's New in latest Release from April 7th, 2021:

- Updated Glossary, including Speed of Maximum Gust, and Total Hourly Precipitation

- Updated national and regional climate services offices contacts and prices information

- Addition of station inventory lists for 1981-2010, 1971-2000, and 1961-1990 Normals.

If you haven't already, please take our survey and provide feedback about our website: https://eccc.sondage-survey.ca/f/LanguageSelection.aspx?s=442ca660-fcf1-47c0-95a9-59707d6fd709

Hourly Data Report for March 01, 2017

TORONTO CITY
ONTARIO

43°40'00.000" N
79°24'00.000" W
112.50 m
6158355
71508
XTO

Download Data

Hourly Data (March 2017)
Hourly Data Report for March 1, 2017
TIME
LST
Temp Definition
°C
Dew Point Definition
°C
Rel Hum Definition
%
Precip. Amount Definition
mm

Wind Dir Definition
10's deg

Wind Spd Definition
km/h
Visibility Definition
km
Stn Press Definition
kPa
Hmdx Definition


Wind Chill Definition


Weather Definition


00:00 10.6 7.1 79 0.0 LegendMM LegendMM   99.16     LegendNANA
01:00 9.8 8.5 92 1.8 LegendMM LegendMM   99.05     LegendNANA
02:00 9.9 9.0 94 7.4 LegendMM LegendMM   98.83     LegendNANA
03:00 9.8 8.9 94 4.2 LegendMM LegendMM   98.61     LegendNANA
04:00 9.3 8.5 95 4.0 LegendMM LegendMM   98.40     LegendNANA
05:00 10.6 9.8 95 0.0 LegendMM LegendMM   98.35     LegendNANA
06:00 11.3 10.4 95 0.0 LegendMM LegendMM   98.25     LegendNANA
07:00 11.1 10.2 94 1.8 LegendMM LegendMM   98.21     LegendNANA
08:00 10.4 9.3 93 0.7 LegendMM LegendMM   98.03     LegendNANA
09:00 10.5 9.4 93 0.0 LegendMM LegendMM   98.12     LegendNANA
10:00 12.3 9.8 85 0.0 LegendMM LegendMM   97.99     LegendNANA
11:00 12.2 8.8 80 0.0 LegendMM LegendMM   97.89     LegendNANA
12:00 11.9 8.2 78 0.0 LegendMM LegendMM   97.92     LegendNANA
13:00 11.1 7.7 80 0.0 LegendMM LegendMM   97.87     LegendNANA
14:00 12.6 8.8 78 0.0 LegendMM LegendMM   97.83     LegendNANA
15:00 12.8 8.4 74 0.0 LegendMM LegendMM   97.73     LegendNANA
16:00 11.7 7.5 76 0.0 LegendMM LegendMM   97.66     LegendNANA
17:00 11.4 8.7 84 0.0 LegendMM LegendMM   97.59     LegendNANA
18:00 9.8 7.1 83 0.2 LegendMM LegendMM   97.56     LegendNANA
19:00 11.1 6.9 75 0.0 LegendMM LegendMM   97.65     LegendNANA
20:00 8.1 3.3 72 0.0 LegendMM LegendMM   97.89     LegendNANA
21:00 5.6 0.3 69 0.0 LegendMM LegendMM   98.07     LegendNANA
22:00 3.6 -2.6 64 0.0 LegendMM LegendMM   98.20     LegendNANA
23:00 1.5 -4.5 64 0.0 LegendMM LegendMM   98.32     LegendNANA

Notes on Data Quality.

Legend

  • E = Estimated
  • M = Missing
  • NA = Not Available*
  • [empty] = Indicates an unobserved value
Date modified: